Вернуться в каталог

ONEWEB-0602

АктивенСвязьPO
NORAD 54666·PAYLOAD·🇬🇧 United Kingdom

Запущен Dec 8, 2022 с Cape Canaveral Space Force Station

Loading…

Ближайшие Пролёты (ближайшие 24 часа)

TLE

СвежийSource: CelesTrak SupGP

Эпоха: Sep 14, 2026, 17:05 UTC

1 54666C 22166AA  26257.71234213  .00001686  00000+0  40864-2 0  2570
2 54666  87.9268 226.1765 0002334  80.2756 341.3939 13.21823024    17

Отслеживайте ONEWEB-0602 в реальном времени с AllMySat

Download on the App Store